Location: Glendale
(37.4556°N, 88.6714°W)
Time: 18:44:39
(UTC+00:00)

Cosmos 1461 - Pass Details

Date: 08 December 2019
Orbit: 519 x 648 km, 65.0° (Epoch: 18 January)

Event Time Altitude Azimuth Distance (km) Brightness Sun altitude
Exits shadow 11:23:15 20° 342° (NNW) 1,359 4.5 -18.0°
Maximum altitude 11:26:05 61° 58° (ENE) 673 3.4 -17.4°
Drops below altitude 10° 11:30:27 10° 139° (SE) 1,958 6.5 -16.6°
Sets 11:32:47 0° 143° (SE) 2,879 7.4 -16.2°
